Flag for Germany Weather past 2 weeks in Bad Nauheim, Hesse, Germany

Now
68 °F

Mild.


Feels Like: 68 °F
Forecast: 48 / 69 °F
Wind: 2 mph from Northeast

Location: Giessen

Current Time: Oct 2, 2014 at 3:14:02 PM

Latest Report: Oct 2, 2014 at 2:00 PM


Visibility: 9 mi

Pressure: 30.37 "Hg

Humidity: 56%

Dew point: 51 °F

Location of Bad NauheimLocation

Historic Weather in Bad Nauheim — Graph

°F

Bad Nauheim temperature yesterday

Maximum temperature yesterday: 69 °F (at 2:00 PM)
Minimum temperature yesterday: 52 °F (at 7:00 AM)
Average temperature yesterday: 59 °F

Past Weeks' High & Low Weather Summary

 TemperatureHumidityPressure
High75 °F (Sep 17, 5:00 PM)100% (Sep 21, 5:00 AM)30.42 "Hg (Sep 21, 5:00 AM)
Low40 °F (Sep 23, 5:00 AM)52% (Sep 23, 5:00 PM)29.86 "Hg (Sep 17, 6:00 PM)
Average57 °F88%30.13 "Hg
* Reported Sep 17 2:00 PM — Oct 2 2:00 PM, Bad Nauheim, Weather by CustomWeather, © 2014

Note: Actual official high and low records may vary slightly from our data, if they occured in-between our weather recording intervals... More about our weather records

Advertising

Bad Nauheim weather history for previous 24 hours

 ConditionsComfort  
Time TempWeatherWind HumidityBarometerVisibility
2:00 PM
Oct 2
68 °FMild.2 mph56%30.37 "Hg9 mi
1:00 PM66 °FMild.2 mph69%30.38 "Hg7 mi
12:00 PM61 °FCool.1 mph78%30.40 "Hg6 mi
11:00 AM58 °FCool.1 mph87%30.41 "Hg6 mi
10:00 AM52 °FFog.1 mph99%30.42 "Hg3 mi
9:00 AM48 °FCool.No wind99%30.42 "Hg2 mi
8:00 AM46 °FDuststorm.1 mph99%30.42 "Hg0 mi
7:00 AM45 °FDuststorm.1 mph100%30.41 "Hg0 mi
6:00 AM46 °FDuststorm.2 mph99%30.40 "Hg0 mi
5:00 AM49 °FCool.No wind99%30.40 "Hg1 mi
4:00 AM48 °FDuststorm.1 mph99%30.40 "Hg0 mi
3:00 AM50 °FFog.1 mph99%30.40 "Hg2 mi
2:00 AM51 °FFog.1 mph99%30.39 "Hg4 mi
1:00 AM52 °FFog.2 mph97%30.38 "Hg3 mi
12:00 AM53 °FCool.1 mph98%30.38 "Hg6 mi
11:00 PM
Oct 1
54 °FCool.2 mph95%30.37 "Hg5 mi
10:00 PM55 °FCool.1 mph93%30.36 "Hg10 mi
9:00 PM60 °FCool.3 mph78%30.34 "Hg14 mi
8:00 PM61 °FCool.3 mph79%30.33 "Hg16 mi
7:00 PM65 °FMild.2 mph75%30.30 "Hg19 mi
6:00 PM69 °FMild.2 mph61%30.29 "Hg22 mi
5:00 PM69 °FMild.1 mph59%30.29 "Hg22 mi
4:00 PM68 °FMild.1 mph66%30.29 "Hg16 mi
3:00 PM67 °FMild.2 mph71%30.30 "Hg13 mi
Weather by CustomWeather, © 2014

See weather overviewHow to use our weather pages